Regional Weather Roundup
Issued by NWS

Home | Current Version | Previous Version | Graphics & Text | Print | Product List | Glossary On
Versions: 1 2 3 4 5 6 7 8 9 10 11 12 13 14 15 16 17 18 19 20 21 22 23 24 25 26 27 28 29 30 31 32 33 34 35 36 37 38 39 40 41 42 43 44 45 46 47 48 49 50
000
ASUS43 KDTX 281001
RWRMI
MICHIGAN HOURLY REGIONAL WEATHER ROUNDUP
NATIONAL WEATHER SERVICE DETROIT/PONTIAC MI
500 AM EST SAT FEB 28 2015

NOTE: "FAIR" INDICATES FEW OR NO CLOUDS BELOW 12,000 FEET WITH NO
SIGNIFICANT WEATHER AND/OR OBSTRUCTION TO VISIBILITY.

MIZ047>049-052>055-059>063-066>070-074>076-081>083-281100-
SOUTHEAST LOWER MICHIGAN

CITY           SKY/WX    TMP DP  RH WIND       PRES   REMARKS
ADRIAN         PTCLDY    -7 -13  75 CALM      30.69S
ALMA           CLEAR      2  -4  77 S5        30.64S WCI  -8
ANN ARBOR      PTCLDY   -13 -17  82 SW3       30.68R
BAD AXE        CLEAR      3   0  85 SW7       30.64R WCI  -9
CARO           CLEAR     -6 -10  81 SW3       30.65R
DETROIT CITY   CLEAR      7  -2  66 SW5       30.70R WCI  -2
DETROIT        PTCLDY     1  -5  75 S5        30.71R WCI  -9
FLINT          CLEAR      6  -4  63 SW7       30.66R WCI  -6
GROSSE ILE     PTCLDY    -2  -8  78 CALM      30.70S
HILLSDALE      PTCLDY     0  -5  80 CALM      30.63S
HOWELL         PTCLDY     2  -3  79 CALM      30.65R

CITY           SKY/WX    TMP DP  RH WIND       PRES   REMARKS
JACKSON        PTCLDY    -5 -11  75 CALM      30.65S
LAMBERTVILLE   PTCLDY    -2  -8  78 CALM      30.71S
LANSING        CLEAR      3  -5  69 SW9       30.66R WCI -12
LAPEER         FAIR     -10 -15  80 CALM      30.65S
MASON          PTCLDY    -1  -6  80 CALM      30.66R
MONROE         PTCLDY    -2  -8  78 CALM      30.69R
MT. CLEMENS    CLEAR     -3  -8  79 SW2       30.68R
PONTIAC        CLEAR     -3 -10  72 CALM      30.65R
PORT HOPE        N/A      6  -1  73 SW6       30.63R WCI  -4
PORT HURON     PTCLDY   -13 -18  77 CALM      30.69R
TRI CITIES     CLEAR      4  -3  73 SW8       30.65R WCI  -9
TROY           CLEAR      6  -2  69 CALM      30.70S
SAGINAW HB     CLEAR      5   0  78 S9        30.65S WCI  -9
$$
MIZ043>046-050>051-056>058-064>065-071>073-077>080-281100-
SOUTHWEST LOWER MICHIGAN

CITY           SKY/WX    TMP DP  RH WIND       PRES   REMARKS
BATTLE CREEK   CLEAR      2  -5  72 S3        30.65S
BENTON HARBOR  PTCLDY    -5  -7  91 CALM      30.67S
BIG RAPIDS     MOCLDY    -4  -7  87 CALM      30.58S
COLDWATER      MOCLDY   -10 -15  78 CALM      30.65S
FREMONT        FLURRIES   0  -4  82 CALM      30.62R
HOLLAND        CLEAR      2  -3  80 S6        30.66S WCI  -9
GRAND RAPIDS   CLEAR      4  -2  76 S10       30.64S WCI -11
IONIA          FAIR       4  -2  75 SW8       30.63S WCI  -9
KALAMAZOO        N/A     -5  -9  83 S3        30.65F
LUDINGTON      PTCLDY    17   6  62 W5        30.61R WCI  10
MARSHALL       PTCLDY   -14 -18  81 CALM      30.65S
MOUNT PLEASANT CLEAR      4   0  81 SW6       30.62R WCI  -6
MUSKEGON       CLOUDY    15   6  67 W10       30.64R WCI   2
SOUTH HAVEN    PTCLDY    -1  -5  82 CALM      30.66S
$$
MIZ016>042-281100-
NORTHERN LOWER MICHIGAN

CITY           SKY/WX    TMP DP  RH WIND       PRES   REMARKS
ALPENA         CLEAR      4  -2  76 SW6       30.56S WCI  -7
BEAVER ISLAND  CLEAR      7   3  86 W6        30.53R WCI  -4
BELLAIRE       CLEAR     -5 -10  81 CALM      30.58R
CADILLAC       CLEAR    -12 -19  70 CALM      30.52R
CHARLEVOIX     CLEAR      7   1  75 CALM      30.58R
FRANKFORT      CLEAR     15   6  67 W6        30.58R WCI   6
GAYLORD        CLEAR     -1  -5  82 SW6       30.49R WCI -13
GRAYLING       CLEAR    -12 -18  75 CALM      30.53S
HARBOR SPRINGS CLEAR      4  -1  77 W5        30.53S WCI  -5
HOUGHTON LAKE  CLEAR     -2  -6  83 SW6       30.55R WCI -14
MANISTEE       CLEAR     -6  -9  84 E3        30.59R
OSCODA         CLEAR      0  -4  82 SW8       30.61R WCI -14
PELLSTON       CLEAR      4  -1  80 CALM      30.54R
ROGERS CITY    CLEAR      6   2  85 SW9       30.55R WCI  -8
TRAVERSE CITY  CLEAR     -3 -10  72 CALM      30.56S
$$
MIZ007>008-015-281100-
EASTERN UPPER MICHIGAN

CITY           SKY/WX    TMP DP  RH WIND       PRES   REMARKS
KINROSS        CLEAR      3   1  92 SW6       30.49R WCI  -8
MACKINAC ISLAN CLEAR      9   3  78 SW10      30.51R WCI  -6
NEWBERRY       PTCLDY     1  -5  75 SW8       30.47R WCI -12
S. S. MARIE    PTCLDY    -7 -12  79 E3        30.50R
MUNISING         N/A     -2 -10  69 S8        30.50R WCI -17
$$
MIZ004>006-011>014-085-281100-
CENTRAL UPPER MICHIGAN

CITY           SKY/WX    TMP DP  RH WIND       PRES   REMARKS
MANISTIQUE     PTCLDY     5  -4  67 W3        30.51S
ESCANABA       CLEAR      1  -8  66 W3        30.54S
MENOMINEE      CLEAR      3  -6  66 W5        30.55S WCI  -6
SAWYER-GWINN   CLEAR      0  -8  67 SW5       30.43S WCI -10
$$
MIZ001>003-009>011-084-281100-
WESTERN UPPER MICHIGAN

CITY           SKY/WX    TMP DP  RH WIND       PRES   REMARKS
IRON MOUNTAIN  CLEAR     -1  -7  75 N3        30.46S
HOUGHTON       CLEAR      8  -5  55 W12       30.41R WCI  -7
COPPER HARBOR    N/A     15   0  51 NW10G18   30.42R WCI   2
IRONWOOD       PTCLDY     1  -2  85 SW9       30.42S WCI -14
$$

ABBREVIATIONS USED IN REMARKS
   TC - TEMPERATURE IN CELSIUS
  WCI - WIND CHILL INDEX
   HX - HEAT INDEX
  VSB - VISIBILITY



USA.gov is the U.S. government's official web portal to all federal, state and local government web resources and services.